Погода в Ашхабаде

Погода в Ашхабаде : погода сейчас, прогноз погоды и архив. Всё, что Вы хотите узнать о погоде в Ашхабаде!

Поиск расширенной информации на нашем сайте:

Другие новости

Новости СМИ2

Главная страница сайта

Новости сайта

02.10.2013

Напоминаем, что на нашем новом сайте вы можете получить высокодетализированные прогнозы погоды по пунктам России, СНГ и мира (включающие важные для авиации метеовеличины, такие как направление и скорость ветра, видимость, явления погоды, количество и форма облачности, нижняя и верхняя граница облачности), а также ознакомиться с разнообразными материалами по авиационной метеорологии и подборкой полезных ссылок на эту тему.

Сайт Метеоцентр.Азия посвящён разработке технологий оптимизации авиаметеорологического обслуживания, включая проектирование и перспективное создание нескольких автоматизированных авиаметеорологических систем:
- система выпуска высокодетальных прогностических карт явлений погоды для нижнего воздушного пространства по России и ближнему зарубежью;
- система верификации прогнозов TAF (выпускаемых синоптиками официальных АМСГ РФ и ближнего зарубежья) и AUTOTAF (выпускаемых сайтом Метеоцентр.Азия) - выявление ошибок, онлайн-сопоставление с фактической погодой METAR, автоматическое внесение коррективов в прогнозы при резком отклонении фактической погоды от прогноза, подсчёт оправдываемости прогнозов по элементам и в целом;
- система обработки, анализа и отображения авиаметеорологической информации для применения провайдерами метеорологической информации.

Рекомендуем: вред курения

Погода в Ашхабаде - сегодня

Время (UTC), дата Ветер
(°,м/с) 
Видим.   Явления Облачность Т
(°С)
Тd
(°С)
f(%) Тe
(°С)
Pmin
(гПа)
dP
(гПа)
Po
(мм)
O2
(г/м3)
Тmin Tmax R s Состояние
почвы
12 21.01.17 020 (С) 10 км    9/0 средняя, верхняя 
[Ac trans|Ci sp]
+8.8 -0.7 51 +10  1021.8  -0.8  747  292           
15 21.01.17 320 (СЗ) 10 км    10/10 1300 м кучево-дожд. 
[Cb cap]
+5.5 -0.9 63 +3  1024.3  2.2  749  296    +9.4       
18 21.01.17 130 (ЮВ) 4000 м  слаб. ливневой дождь  10/10 1110 м кучево-дожд. 
[Cb cap]
+3.6 +1.5 86 +4  1024.7  0.2  749  298    +9.4       
21 21.01.17 200 (Ю) 2000 м  слаб. ливневой дождь  10/10 960 м кучево-дожд. 
[Cb cap]
+4.2 +2.2 87 +5  1023.7  -0.8  748  297           
00 22.01.17 280 (З) 10 км  слаб. ливневой дождь  10/10 1320 м кучево-дожд. 
[Cb cap]
+4 +3 93 +5  1023.7  -0.1  748  297           
03 22.01.17 300 (СЗ) 2000 м  дымка{ливн. осадки}  10/10 1380 м кучево-дожд. 
[Cb cap]
+3.3 +2.6 95 +4  1023.8  0.1  748  298         
06 22.01.17 100 (В) 2000 м  дымка{ливн. осадки, туман}  4/0 средняя 
[Ac trans]
+5.1 +2.9 86 +5  1023.8  0.1  748  296  +3.3       
09 22.01.17 090 (В) 10 км    5/5 1000 м 
[Sc]
+9.3 +3 65 +9  1021.7  -1.7  747  291           
12 22.01.17 110 (В) 10 км    8/5 1500 м средняя 
[Sc|Ac trans]
+9.7 +0 51 +9  1021.1  -0.6  747  291           
15 22.01.17 120 (ЮВ) 4000 м    10/10 1320 м 
[Sc]
+7.1 +3 75 +7  1022.6  1.3  748  293    +9.8       
18 22.01.17 300 (СЗ) 4000 м  слаб. ливневой дождь  10/10 930 м кучево-дожд. 
[Cb cap]
+6.7 +4.1 83 +5  1024.8  2.2  749  294    +9.8       
21 22.01.17 180 (Ю) 4000 м  слаб. дождь{ливн. осадки}  10/10 500 м 
[Ns]
+5.3 +3.6 89 +4  1027.3  2.2  751  296           
00 23.01.17 300 (СЗ) 10 км  слаб. дождь{ливн. осадки}  10/10 360 м 
[Ns]
+3.4 +1.9 90 +1  1029.9  2.4  753  299           
03 23.01.17 310 (СЗ) 10 км  слаб. дождь{ливн. осадки}  10/10 150 м 
[Ns]
+1.8 +0.7 92 -1  1031.6  1.4  754  302         
06 23.01.17 350 (С) 10 км  {ливн. осадки, дождь}  10/10 450 м 
[St]
+2.5 +0.1 84 +1  1033.2  1.7  755  301  +1.8       
09 23.01.17 320 (СЗ) 10 км    10/8 1000 м средняя 
[Sc|Ac trans]
+3.7 +0.3 78 +5  1031.2  -0.7  754  300           
12 23.01.17 200 (Ю) 10 км    10/8 1000 м средняя 
[Sc|Ac trans]
+5.3 -0.8 65 +6  1030.6  -0.5  753  298           
15 23.01.17 010 (С) 10 км    10/10 1500 м 
[Sc]
+4.1 +0.1 75 +4  1031.7  754  299    +6  0.0     
18 23.01.17 210 (ЮЗ) 10 км    10/10 1260 м 
[Sc]
+3.9 -0.1 75 +5  1033.1  1.4  755  300    +6  0.0     
21 23.01.17 020 (С) 10 км    6/6 1500 м 
[Sc]
+3.1 +0.2 81 +1  1033.3  0.1  755  301           
00 24.01.17 230 (ЮЗ) 10 км    ясно 
+0.7 -1.3 86 +1  1034.3  0.7  756  304           
03 24.01.17 210 (ЮЗ) 10 км    ясно 
+0.5 -0.9 90 +1  1034.6  0.3  756  304           
06 24.01.17 140 (ЮВ) 10 км    8/3 1500 м средняя 
[Sc|Ac trans]
+5.2 -3 55 +4  1036.4  2.1  758  300  +0.2         
09 24.01.17 360 (С) 10 км    3/0 средняя 
[Ac trans]
+8.2 -4.4 41 +8  1034.9  -1.1  757  297           
12 24.01.17 020 (С) 10 км    5/4 1500 м средняя 
[Sc diur, vesp|Ac trans]
+8.5 -4.1 41 +9  1033.5  -1.3  756  296           
Время (UTC), дата Ветер
(°,м/с) 
Видим.   Явления Облачность Т
(°С)
Тd
(°С)
f(%) Тe
(°С)
Pmin
(гПа)
dP
(гПа)
Po
(мм)
O2
(г/м3)
Тmin Tmax R s Состояние
почвы

Для получения пояснительной информации подведите курсор к названию столбца.

ПОГОДА в Ашхабаде - архив

Всё, что Вы хотите узнать о погоде в Ашхабаде - удобно и подробно!

Выберите нужную дату (начиная с 1 января 2015* года) и нажмите кнопку "Найти".
Будут отображены архивные сводки погоды по пункту Ашхабад, начиная с указанной даты.


Отображать данные в формате CSV (для использования в таблицах Excel)


Внимание! Наш архив погоды предназначен исключительно для личного некоммерческого использования в познавательных целях. Если Вам необходимы официальные справки о состоянии погоды (для производственных, юридических, коммерческих и т.п. целей), обращайтесь в органы Росгидромета.

*Примечание: данная дата относится к архиву по метеостанциям СССР (Россия, СНГ, Балтия).
Архив по метеостанциям Зарубежной Европы и Азии (кроме Китая) хранится 10 дней, по другим регионам земного шара (Китай, Африка, Америка, Австралия, Океания) - 1 день.

Ашхабад - район местоположения метеостанции


Название, широта, долгота, высота метеостанции:
Ашхабад (город) 38°ш. 58.3°д. 208 м над ур. моря [Туркменистан]

Дополнительная информация

В oтличие oт бoльшинства пoгoдных сайтoв мы публикуем пoдрoбную метеoинфoрмацию в детальнoм прoфессиoнальнoм фoрмате.

Характеристики температуры и влажнoсти вoздуха измеряются на высoте 2 м в тени вдали oт зданий и деревьев.
Скoрoсть ветра измеряется на высoте 10 м (на урoвне рoста челoвека скoрoсть ветра ниже в 1.5-2 раза). Если метеoстанция нахoдится в гoрoде или в лесу, тo скoрoсть ветра занижена на 2-4 м/с пo сравнению с oткрытым местoм. Скoрoсть ветра над акватoриями крупных рек и oзёр, а также на вершинах хoлмoв на 2-5 м/с выше, чем в oбычных услoвиях.
Атмoсфернoе давление в разных тoчках местнoсти мoжет значительнo oтличаться oт давления на метеoстанции, в зависимoсти oт услoвий рельефа (при пoдъёме на 10 м давление пoнижается примернo на 1 мм рт.ст.).